Location: *
(53.9002°N, 27.5624°E)
Time: 15:11:27
(UTC+00:00)

Cosmos 836 Rocket - Pass Details

Date: 12 November 2019
Orbit: 757 x 779 km, 74.1° (Epoch: 05 December)

Event Time Altitude Azimuth Distance (km) Brightness Sun altitude
Rises 15:21:40 0° 200° (SSW) 3,214 8.3 -9.6°
Reaches altitude 10° 15:24:01 10° 200° (SSW) 2,295 7.5 -10.0°
Maximum altitude 15:29:14 80° 114° (ESE) 785 4.5 -10.7°
Drops below altitude 10° 15:34:31 10° 28° (NNE) 2,326 6.6 -11.5°
Enters shadow 15:36:00 - 28° (NNE) 2,903 7.1 -11.7°
